5B4ALR-13 Weather Reports


time (UTC)temp
F
wind
direction
speed
knots
gust
knots
rain 1hr
in
rain 24hr
in
rain mn
in
humidity
%
barometer
mb
20260504110108 68 225 0.9 0.9 0.00 0.09 0.07 55 1009.4
20260504100106 63 225 0.9 0.9 0.01 0.12 0.07 60 1009.5
20260504090105 68 315 0.9 0.9 0.00 0.15 0.06 52 1008.4
20260504081105 65 180 0.9 2.6 0.05 0.15 0.06 66 1008.2
20260504080105 64 180 2.6 2.6 0.05 0.15 0.06 74 1008.3
20260504070105 60 180 1.7 1.7 0.00 0.10 0.01 71 1008.1
20260504060105 62 180 0.9 1.7 0.00 0.11 0.01 64 1007.7
20260504050105 60 247 0.9 0.9 0.00 0.12 0.01 69 1007.8
20260504045105 59 180 0.9 1.7 0.00 0.14 0.01 71 1007.8
20260504044105 58 270 0.0 0.9 0.00 0.14 0.01 72 1007.8
20260504043105 57 225 0.9 0.9 0.00 0.14 0.01 73 1007.9
20260504042105 58 225 1.7 2.6 0.01 0.14 0.01 71 1008.0
20260504041105 58 180 0.9 0.9 0.01 0.14 0.01 69 1007.9
20260504040105 58 225 0.9 1.7 0.01 0.14 0.01 70 1007.9
20260504035105 57 225 0.9 0.9 0.01 0.15 0.01 70 1008.0
20260504034105 57 180 0.9 0.9 0.01 0.15 0.01 70 1008.2
20260504033105 57 225 0.9 0.9 0.01 0.15 0.01 71 1008.2
20260504032105 57 180 0.9 0.9 0.01 0.15 0.01 72 1008.2
20260504031105 58 247 0.9 0.9 0.00 0.14 0.00 70 1008.4
20260504030105 58 180 2.6 3.5 0.00 0.14 0.00 72 1007.9
20260504025105 58 225 0.9 0.9 0.00 0.14 0.00 71 1008.1
20260504024105 58 225 1.7 1.7 0.00 0.14 0.00 69 1008.2
20260504023105 58 225 0.9 0.9 0.00 0.14 0.00 68 1008.0
20260504022105 58 180 0.9 1.7 0.00 0.14 0.00 68 1008.2
20260504021105 58 180 0.9 1.7 0.00 0.14 0.00 68 1008.1
20260504020105 57 225 0.0 0.9 0.00 0.14 0.00 69 1008.5
20260504015105 57 225 0.9 0.9 0.00 0.14 0.00 69 1008.6
20260504014105 57 180 0.0 0.0 0.00 0.14 0.00 69 1008.7
20260504013105 57 270 0.0 0.9 0.00 0.14 0.00 69 1008.9
20260504012105 56 270 0.0 0.0 0.00 0.14 0.00 68 1008.8
20260504011105 56 225 0.0 0.9 0.00 0.14 0.00 68 1009.0
20260504010105 56 180 0.9 0.9 0.00 0.14 0.00 67 1008.9
20260504005105 57 180 0.9 0.9 0.00 0.14 0.00 65 1008.8
20260504004105 59 180 0.0 0.9 0.00 0.14 0.00 65 1008.8
20260504003105 59 225 0.0 0.0 0.00 0.14 0.00 64 1008.7
20260504002105 59 225 0.0 0.0 0.00 0.14 0.00 63 1008.9
20260504001105 58 270 0.9 0.9 0.00 0.14 0.00 62 1009.0
20260504000105 58 180 1.7 1.7 0.00 0.14 0.00 62 1008.9
20260503235105 58 0 0.9 0.9 0.00 0.15 0.00 63 1009.0
20260503234105 58 157 0.9 0.9 0.00 0.15 0.00 64 1009.0
20260503233105 57 225 0.0 0.9 0.00 0.15 0.00 66 1009.1
20260503232105 57 225 0.0 0.0 0.00 0.15 0.00 66 1009.4
20260503231105 57 180 0.9 1.7 0.00 0.15 0.00 65 1009.5
20260503230105 57 180 0.0 0.0 0.00 0.15 0.00 65 1009.6
20260503225105 57 180 0.0 0.0 0.00 0.15 0.00 65 1009.7
20260503224105 57 270 0.0 0.0 0.00 0.15 0.00 64 1009.7
20260503223105 58 135 0.0 0.0 0.00 0.15 0.00 64 1009.7
20260503222105 57 180 1.7 5.2 0.00 0.15 0.00 65 1009.7
20260503221105 57 180 1.7 5.2 0.00 0.15 0.00 66 1009.7
20260503220105 57 180 0.9 2.6 0.00 0.15 0.00 65 1009.8
20260503215105 57 180 1.7 5.2 0.00 0.15 0.00 65 1009.9
20260503214105 57 225 1.7 6.1 0.00 0.15 0.00 65 1009.8
20260503213105 57 180 1.7 1.7 0.00 0.15 0.00 65 1009.8
20260503212105 57 202 0.9 1.7 0.00 0.15 0.00 64 1010.1
20260503211105 59 225 4.3 8.7 0.00 0.15 0.00 58 1010.4
20260503210105 59 225 1.7 1.7 0.00 0.15 0.00 59 1009.8
20260503205105 58 180 1.7 1.7 0.00 0.15 0.15 62 1009.8
20260503204105 58 202 0.9 0.9 0.00 0.15 0.15 63 1009.8
20260503203105 58 270 0.9 3.5 0.00 0.15 0.15 62 1009.9
20260503202105 58 270 0.9 0.9 0.00 0.15 0.15 62 1010.0
20260503201105 58 180 0.9 0.9 0.00 0.15 0.15 62 1010.0
20260503200105 59 180 0.9 1.7 0.00 0.15 0.15 61 1010.1
20260503195105 59 270 0.9 1.7 0.00 0.15 0.15 60 1010.2
20260503194105 59 180 2.6 4.3 0.00 0.15 0.15 60 1010.3
20260503193105 59 180 1.7 4.3 0.00 0.15 0.15 60 1010.3
20260503192105 59 270 2.6 4.3 0.00 0.15 0.15 61 1010.3
20260503191105 59 270 2.6 6.1 0.00 0.15 0.15 62 1010.0
20260503190105 59 247 1.7 5.2 0.00 0.15 0.15 61 1010.1
20260503185105 60 180 0.9 0.9 0.00 0.15 0.15 60 1010.0
20260503184105 59 180 0.9 1.7 0.00 0.15 0.15 60 1009.9
20260503183105 60 225 0.9 0.9 0.00 0.15 0.15 60 1009.8
20260503182105 60 157 1.7 4.3 0.00 0.15 0.15 59 1009.7
20260503181105 60 180 0.9 1.7 0.00 0.15 0.15 58 1009.6
20260503180105 61 225 0.9 0.9 0.00 0.15 0.15 58 1009.6
20260503175105 61 180 1.7 3.5 0.00 0.15 0.15 58 1009.4
20260503174105 61 270 0.9 0.9 0.00 0.15 0.15 58 1009.4
20260503173105 61 225 0.9 1.7 0.00 0.15 0.15 58 1009.2
20260503172105 62 202 0.9 0.9 0.00 0.15 0.15 58 1009.2
20260503171105 62 270 0.9 0.9 0.00 0.15 0.15 59 1009.0
20260503170105 62 225 0.0 0.9 0.00 0.15 0.15 58 1008.9
20260503160105 65 225 0.9 1.7 0.00 0.15 0.15 52 1008.3
20260503150105 66 270 0.9 1.7 0.00 0.15 0.15 56 1007.9
20260503140105 66 135 0.9 1.7 0.00 0.15 0.15 61 1007.7
20260503131105 65 270 0.9 0.9 0.00 0.15 0.15 73 1008.2
20260503130105 64 180 1.7 2.6 0.01 0.15 0.15 75 1008.2
20260503120105 63 270 1.7 2.6 0.00 0.14 0.14 81 1008.5